Home > Weather > Cupertino > Past weeks

Flag for USA Past Weather in Cupertino, California, USA — Yesterday and Last 2 Weeks

Now
59 °F

Partly sunny.


Feels Like: 59 °F
Forecast: 54 / 87 °F
Wind: No wind

Location: Moffett Field

Current Time: May 31, 2016 at 7:28:50 AM

Latest Report: May 31, 2016 at 6:56 AM


Visibility: 7 mi

Pressure: 29.90 "Hg

Humidity: 87%

Dew Point: 55 °F

Location of CupertinoLocation

Past Weather in Cupertino — Graph

°F

Cupertino Temperature Yesterday

Maximum temperature yesterday: 78 °F (at 2:56 PM)
Minimum temperature yesterday: 54 °F (at 5:56 AM)
Average temperature yesterday: 66 °F

High & Low Weather Summary for the Past Weeks

 TemperatureHumidityPressure
High89 °F (May 17, 2:56 PM)87% (May 29, 11:56 PM)30.16 "Hg (May 29, 11:56 PM)
Low48 °F (May 22, 5:56 AM)20% (May 17, 4:56 PM)29.81 "Hg (May 28, 4:56 PM)
Average64 °F62%29.97 "Hg
* Reported May 16 5:56 AM — May 31 5:56 AM, Cupertino, Weather by CustomWeather, © 2016

Note: Actual official high and low records may vary slightly from our data, if they occured in-between our weather recording intervals... More about our weather records

Advertising

Cupertino Weather History for the Previous 24 Hours

Scroll right to see more
 ConditionsComfort  
Time TempWeatherWind HumidityBarometerVisibility
5:56 AM
Tue, May 31
59 °FLow clouds.No wind84%29.89 "Hg10 mi
4:56 AM58 °FLow clouds.No wind87%29.89 "Hg10 mi
3:56 AM58 °FLow clouds.No wind84%29.89 "Hg10 mi
2:56 AM59 °FClear.3 mph84%29.90 "Hg10 mi
1:56 AM60 °FClear.No wind83%29.91 "Hg10 mi
12:56 AM61 °FClear.3 mph81%29.93 "Hg10 mi
11:56 PM
Mon, May 30
62 °FClear.3 mph78%29.94 "Hg10 mi
10:56 PM62 °FClear.5 mph78%29.95 "Hg10 mi
9:56 PM63 °FClear.7 mph75%29.95 "Hg10 mi
8:56 PM65 °FSunny.7 mph68%29.93 "Hg10 mi
7:56 PM68 °FSunny.7 mph63%29.93 "Hg10 mi
6:56 PM71 °FSunny.10 mph59%29.93 "Hg10 mi
5:56 PM74 °FSunny.12 mph53%29.92 "Hg10 mi
4:56 PM76 °FSunny.14 mph50%29.93 "Hg10 mi
3:56 PM77 °FSunny.13 mph50%29.93 "Hg10 mi
2:56 PM78 °FSunny.13 mph48%29.95 "Hg10 mi
1:56 PM76 °FSunny.12 mph52%29.97 "Hg10 mi
12:56 PM76 °FSunny.9 mph48%29.98 "Hg10 mi
11:56 AM75 °FSunny.6 mph50%29.99 "Hg10 mi
10:56 AM72 °FSunny.6 mph52%30.00 "Hg10 mi
9:56 AM68 °FSunny.No wind57%30.01 "Hg10 mi
8:56 AM63 °FSunny.3 mph68%30.01 "Hg10 mi
7:56 AM59 °FSunny.No wind75%30.01 "Hg10 mi
Weather by CustomWeather, © 2016

See weather overviewHow to use our weather pages